[[{"header":{"parameterUnit":"m.s-1","parameterCategory":1,"la1":30.2991,"la2":30.254,"lo1":-89.0895,"lo2":-89.0444,"dy":0.0017,"dx":0.0017,"nx":28,"ny":28,"refTime":"2024-08-30T03:00:00:Z","depth":0,"parameterNumber":2,"parameterNumberName":"U-component_of_WINDS"},"data":[0,0,0,0,0,0,0,0,0,0,0,0,0,0,0,0,0,0,0,0,0,0,0,0,0,0,0,0,0,0,0,0,0,0,0,0,0,0,0,0,0,0,0,0,0,0,0,0,0,0,0,0,0,0,0,0,0,0,-2.2513,-2.2514,0,-2.2585,-2.2586,-2.2586,-2.2574,-2.2573,-2.2572,-2.2571,-2.2644,-2.2647,-2.265,0,0,0,0,0,0,0,0,0,0,0,0,0,-2.2365,-2.2368,-2.2513,-2.2514,-2.2515,-2.2585,-2.2586,-2.2587,-2.2575,-2.2573,-2.2571,-2.257,-2.2643,-2.2647,-2.265,0,0,0,0,0,0,0,0,0,0,0,0,0,-2.2432,-2.2369,-2.2513,-2.2517,-2.2518,-2.2584,-2.2586,-2.2587,-2.2575,-2.2573,-2.2571,-2.2569,-2.2642,-2.2646,-2.2651,-2.2717,0,0,-2.2665,-2.2667,0,0,0,0,0,0,0,0,-2.2428,-2.2438,-2.2515,-2.2517,-2.2518,-2.2569,-2.256,-2.263,-2.2575,-2.2553,-2.2571,-2.2568,-2.262,-2.2627,-2.2644,-2.272,-2.2724,-2.2665,-2.2668,-2.267,-2.2672,0,0,0,0,0,0,0,-2.2424,-2.2434,-2.2541,-2.2517,-2.2518,-2.2515,-2.2523,-2.2574,-2.2596,-2.2555,-2.2554,-2.2563,-2.2621,-2.264,-2.2646,-2.2725,-2.2665,-2.2669,-2.2672,-2.2674,-2.2858,-2.286,0,0,0,0,0,0,-2.2418,-2.2431,-2.2539,-2.2543,-2.2468,-2.252,-2.2528,-2.2554,-2.2596,-2.26,-2.2565,-2.2562,-2.2633,-2.264,-2.2648,-2.2727,-2.267,-2.2675,-2.2677,-2.2856,-2.2858,-2.286,0,0,0,0,0,0,-2.2415,-2.2428,-2.2536,-2.2487,-2.25,-2.2524,-2.2554,-2.2557,-2.2576,-2.2603,-2.2607,-2.258,-2.2632,-2.2642,-2.27,-2.273,-2.2677,-2.2681,-2.2853,-2.2856,-2.2859,-2.2887,0,0,0,0,0,0,-2.2411,-2.2427,-2.2452,-2.2488,-2.2503,-2.2586,-2.2556,-2.2559,-2.2584,-2.2581,-2.2618,-2.2623,-2.2631,-2.2693,-2.2704,-2.2735,-2.2685,-2.2851,-2.2855,-2.2858,-2.2883,-2.289,-2.2897,0,0,0,0,0,-2.2405,-2.2457,-2.2453,-2.2467,-2.2536,-2.2588,-2.2597,-2.2606,-2.2586,-2.2612,-2.2629,-2.2621,-2.2725,-2.2699,-2.2712,-2.2744,-2.2849,-2.2854,-2.2858,-2.288,-2.2889,-2.2896,0,0,0,0,0,0,-2.2425,-2.2462,-2.2458,-2.2523,-2.2553,-2.2586,-2.2619,-2.2615,-2.265,-2.2646,-2.2655,-2.2664,-2.2722,-2.274,-2.271,-2.281,-2.2784,-2.2792,-2.2797,-2.2805,-2.2812,-2.2805,-2.2689,0,0,0,0,0,-2.2437,-2.2476,-2.2507,-2.2561,-2.2576,-2.2595,-2.2618,-2.2622,-2.2653,-2.2665,-2.2687,-2.2717,-2.2756,-2.2782,-2.282,-2.2886,-2.2893,-2.2915,-2.2922,-2.2927,-2.2933,-2.2968,-2.2977,-2.2876,-2.2876,-2.2876,0,0,-2.2461,-2.2487,-2.2511,-2.2566,-2.2589,-2.2629,-2.2605,-2.265,-2.268,-2.2672,-2.2728,-2.2745,-2.2779,-2.2841,-2.287,-2.2857,-2.2963,-2.2933,-2.2937,-2.294,-2.2974,-2.2983,-2.2992,-2.2879,-2.2878,-2.2878,0,0,-2.2527,-2.2551,-2.2598,-2.2621,-2.2657,-2.2669,-2.2681,-2.2715,-2.2726,-2.2782,-2.2777,-2.2813,-2.2881,-2.2905,-2.2926,-2.3001,-2.2994,-2.3013,-2.3047,-2.3081,-2.3089,-2.3096,-2.3121,-2.313,-2.3019,-2.3019,-2.3019,0,-2.2553,-2.2614,-2.2623,-2.2667,-2.269,-2.2686,-2.2733,-2.2756,-2.2802,-2.2818,-2.2804,-2.2888,-2.2911,-2.2978,-2.2996,-2.3015,-2.3027,-2.3008,-2.3087,-2.3094,-2.3101,-2.3125,-2.3134,-2.3021,-2.3021,-2.302,-2.302,0,-2.2644,-2.2686,-2.272,-2.2764,-2.2792,-2.2837,-2.2853,-2.288,-2.2882,-2.2895,-2.2952,-2.2979,-2.3022,-2.3038,-2.3041,-2.3106,-2.3097,-2.3085,-2.3058,-2.3112,-2.3135,-2.3144,-2.3023,-2.3023,-2.3022,-2.3022,0,0,-2.2722,-2.277,-2.2783,-2.2802,-2.2841,-2.2874,-2.2919,-2.2961,-2.2983,-2.3015,-2.3053,-2.311,-2.3099,-2.3123,-2.3129,-2.3159,-2.3214,-2.3143,-2.3144,-2.3154,-2.3286,-2.3293,-2.3303,-2.3211,-2.3213,-2.3214,-2.3282,0,-2.279,-2.287,-2.2879,-2.295,-2.2988,-2.2984,-2.3024,-2.3052,-2.3066,-2.3101,-2.3116,-2.3156,-2.314,-2.3154,-2.3184,-2.3201,-2.324,-2.3197,-2.3245,-2.3246,-2.3234,-2.3315,-2.3324,-2.3386,-2.3291,-2.3293,-2.3294,0,-2.288,-2.2913,-2.2988,-2.3021,-2.3037,-2.3072,-2.3111,-2.3144,-2.3176,-2.3184,-2.3211,-2.3212,-2.3258,-2.3231,-2.3295,-2.3265,-2.3285,-2.3297,-2.33,-2.3303,-2.3272,-2.3319,-2.3407,-2.3415,-2.3308,-2.3307,-2.3306,0,-2.2927,-2.2992,-2.3044,-2.3062,-2.3101,-2.3126,-2.3144,-2.3173,-2.3198,-2.3231,-2.3247,-2.3286,-2.3307,-2.3337,-2.3348,-2.3328,-2.3411,-2.3385,-2.3418,-2.3417,-2.3434,-2.3432,-2.3524,-2.345,-2.345,-2.345,-2.345,0,-2.3001,-2.3046,-2.3066,-2.3098,-2.3149,-2.3159,-2.3209,-2.3226,-2.3252,-2.3287,-2.3287,-2.332,-2.3334,-2.3369,-2.3379,-2.3429,-2.3439,-2.3446,-2.3448,-2.3445,-2.3444,-2.3457,-2.3452,-2.3452,-2.3452,-2.3451,-2.3451,0,-2.3062,-2.3077,-2.3134,-2.3167,-2.3176,-2.3212,-2.324,-2.3271,-2.3285,-2.3329,-2.334,-2.3362,-2.3403,-2.3418,-2.3469,-2.3475,-2.3533,-2.3532,-2.3522,-2.3521,-2.3552,-2.3549,-2.3654,-2.3668,-2.3587,-2.3588,-2.3589,0,-2.3107,-2.3142,-2.3178,-2.3201,-2.322,-2.3258,-2.3282,-2.3293,-2.3319,-2.3357,-2.3383,-2.3424,-2.3457,-2.3524,-2.3544,-2.3582,-2.3581,-2.3615,-2.3586,-2.3582,-2.3579,-2.3576,-2.3579,-2.362,-2.3621,-2.3621,-2.3622,0,-2.3185,-2.319,-2.3225,-2.3263,-2.3292,-2.3322,-2.3352,-2.3371,-2.3387,-2.3416,-2.3458,-2.3483,-2.3534,-2.3575,-2.3614,-2.3632,-2.3629,-2.3631,-2.364,-2.3637,-2.3629,-2.3632,-2.3534,-2.3628,-2.3628,-2.3627,-2.3627,-2.3626,-2.3238,-2.3268,-2.3298,-2.3337,-2.336,-2.3387,-2.3418,-2.3435,-2.347,-2.3512,-2.3517,-2.3562,-2.3592,-2.3645,-2.3665,-2.37,-2.369,-2.3704,-2.3707,-2.371,-2.3711,-2.3625,-2.3707,-2.3707,-2.3707,-2.3707,-2.3707,0,-2.3314,-2.3333,-2.3369,-2.3409,-2.344,-2.3435,-2.3467,-2.3493,-2.3532,-2.3561,-2.3593,-2.3641,-2.368,-2.3703,-2.3742,-2.3766,-2.3765,-2.3776,-2.3773,-2.3777,-2.3718,-2.3705,-2.3775,-2.3775,-2.3775,-2.3775,-2.3775,-2.3775,-2.3357,-2.3407,-2.3417,-2.3478,-2.3497,-2.354,-2.3559,-2.3584,-2.3606,-2.3659,-2.3692,-2.3707,-2.3733,-2.3774,-2.3809,-2.3815,-2.3829,-2.3839,-2.3844,-2.3788,-2.3781,-2.3774,-2.3762,-2.3843,-2.3843,-2.3899,-2.39,-2.39]},{"header":{"parameterUnit":"m.s-1","parameterCategory":1,"la1":30.2991,"la2":30.254,"lo1":-89.0895,"lo2":-89.0444,"dy":0.0017,"dx":0.0017,"nx":28,"ny":28,"refTime":"2024-08-30T03:00:00:Z","depth":0,"parameterNumber":3,"parameterNumberName":"V-component_of_WINDS"},"data":[0,0,0,0,0,0,0,0,0,0,0,0,0,0,0,0,0,0,0,0,0,0,0,0,0,0,0,0,0,0,0,0,0,0,0,0,0,0,0,0,0,0,0,0,0,0,0,0,0,0,0,0,0,0,0,0,0,0,1.2744,1.2744,0,1.2791,1.2791,1.2792,1.2769,1.2768,1.2767,1.2765,1.2812,1.2814,1.2816,0,0,0,0,0,0,0,0,0,0,0,0,0,1.2634,1.2636,1.2744,1.2744,1.2745,1.279,1.2791,1.2792,1.2769,1.2768,1.2766,1.2765,1.2811,1.2814,1.2816,0,0,0,0,0,0,0,0,0,0,0,0,0,1.2681,1.2636,1.2743,1.2739,1.2739,1.279,1.2791,1.2792,1.277,1.2768,1.2766,1.2764,1.281,1.2813,1.2817,1.2874,0,0,1.2828,1.2829,0,0,0,0,0,0,0,0,1.2678,1.2685,1.2739,1.274,1.274,1.2772,1.2769,1.2819,1.277,1.2758,1.2765,1.2763,1.28,1.2804,1.2817,1.2876,1.2878,1.2828,1.283,1.2831,1.2832,0,0,0,0,0,0,0,1.2675,1.2683,1.2762,1.274,1.274,1.2734,1.2739,1.2779,1.2788,1.2759,1.2757,1.2763,1.28,1.2813,1.2818,1.2879,1.2828,1.2831,1.2833,1.2834,1.2989,1.2991,0,0,0,0,0,0,1.2672,1.268,1.2761,1.2763,1.2704,1.2738,1.2743,1.2763,1.2788,1.279,1.2765,1.2762,1.2808,1.2814,1.2819,1.2888,1.2831,1.2835,1.2837,1.2987,1.2989,1.2992,0,0,0,0,0,0,1.267,1.2679,1.2759,1.2722,1.2731,1.2742,1.2765,1.2765,1.2779,1.2792,1.2794,1.2777,1.2807,1.2814,1.2861,1.2889,1.2836,1.2839,1.2985,1.2988,1.2991,1.3026,0,0,0,0,0,0,1.2667,1.2679,1.2701,1.2722,1.2733,1.28,1.2766,1.2768,1.2785,1.2782,1.2804,1.2806,1.2806,1.2856,1.2865,1.2893,1.2842,1.2982,1.2986,1.299,1.3022,1.303,1.3036,0,0,0,0,0,1.2663,1.2708,1.2702,1.2712,1.2761,1.2802,1.2808,1.2808,1.2788,1.281,1.2819,1.2805,1.2885,1.2861,1.287,1.29,1.298,1.2985,1.2989,1.3019,1.3028,1.3036,0,0,0,0,0,0,1.2689,1.2711,1.2704,1.2758,1.2778,1.2798,1.2825,1.2817,1.2843,1.2839,1.2837,1.2842,1.2891,1.29,1.2873,1.2958,1.293,1.2936,1.2949,1.2958,1.2965,1.2961,1.2845,0,0,0,0,0,1.2701,1.2733,1.275,1.2796,1.2807,1.2815,1.2832,1.2831,1.2851,1.2859,1.2871,1.2891,1.2921,1.294,1.2968,1.3024,1.3029,1.305,1.3057,1.3063,1.3068,1.3098,1.3108,1.3006,1.3006,1.3006,0,0,1.2726,1.2742,1.2762,1.2802,1.2817,1.285,1.2822,1.2857,1.2881,1.2864,1.2909,1.2919,1.2941,1.2993,1.3017,1.3003,1.3097,1.3068,1.3073,1.3075,1.3104,1.3113,1.3122,1.3009,1.3009,1.3008,0,0,1.2788,1.2804,1.2844,1.2861,1.2885,1.289,1.29,1.2921,1.2927,1.2972,1.2961,1.2989,1.304,1.3057,1.3072,1.3142,1.3131,1.3151,1.3187,1.3217,1.3225,1.3232,1.3256,1.3265,1.3157,1.3157,1.3157,0,1.2816,1.2865,1.2865,1.2902,1.292,1.2908,1.2948,1.2964,1.2996,1.3008,1.2993,1.3057,1.3071,1.3127,1.3144,1.3157,1.3167,1.3148,1.3224,1.3231,1.3237,1.3261,1.327,1.3159,1.3159,1.3159,1.3159,0,1.2898,1.2932,1.2961,1.2993,1.3014,1.3052,1.3059,1.308,1.3077,1.3084,1.3131,1.3148,1.3179,1.3193,1.3189,1.3248,1.3239,1.3224,1.3195,1.3249,1.3271,1.328,1.3163,1.3162,1.3161,1.316,0,0,1.2975,1.3008,1.3019,1.3033,1.306,1.3086,1.3125,1.3156,1.3174,1.3197,1.3229,1.3273,1.326,1.3277,1.3276,1.3303,1.3357,1.3284,1.3285,1.3296,1.3422,1.3432,1.3442,1.335,1.3352,1.3354,1.342,0,1.3038,1.3105,1.3107,1.3168,1.3199,1.319,1.3223,1.3243,1.3251,1.3278,1.3287,1.3318,1.3299,1.3309,1.3335,1.3345,1.3382,1.334,1.3379,1.338,1.3372,1.3454,1.3464,1.3525,1.3428,1.343,1.3431,0,1.312,1.3146,1.3211,1.3234,1.3247,1.3277,1.3306,1.3333,1.3356,1.336,1.338,1.3376,1.3414,1.3386,1.344,1.3411,1.3428,1.3435,1.3437,1.344,1.3407,1.3457,1.3545,1.3554,1.3444,1.3443,1.3442,0,1.3169,1.3221,1.3266,1.3279,1.3307,1.3328,1.3341,1.3362,1.3381,1.3407,1.3419,1.3449,1.3465,1.3489,1.3493,1.3472,1.3546,1.3518,1.355,1.355,1.3564,1.3563,1.3655,1.3577,1.3577,1.3577,1.3577,0,1.3238,1.3277,1.3288,1.3316,1.336,1.3363,1.3406,1.3417,1.3437,1.3466,1.346,1.3487,1.3492,1.3521,1.3524,1.3568,1.3575,1.3579,1.3579,1.3579,1.3578,1.3588,1.3583,1.358,1.3579,1.3579,1.3578,0,1.3299,1.3308,1.3356,1.338,1.3387,1.3418,1.3438,1.3464,1.3473,1.351,1.3519,1.3532,1.3566,1.3573,1.3612,1.3615,1.3666,1.3663,1.3658,1.3658,1.3688,1.3685,1.3789,1.3802,1.3717,1.3718,1.3719,0,1.3341,1.3372,1.3399,1.3419,1.3433,1.3464,1.3484,1.3489,1.351,1.3539,1.3562,1.3595,1.3622,1.3676,1.3689,1.3719,1.3716,1.375,1.372,1.3719,1.3715,1.3713,1.3716,1.3755,1.3756,1.3757,1.3758,0,1.3416,1.3419,1.3448,1.348,1.3504,1.3529,1.3552,1.3568,1.3576,1.36,1.3635,1.3656,1.3698,1.373,1.3762,1.3774,1.3767,1.3768,1.3776,1.3775,1.3771,1.3773,1.3673,1.3765,1.3764,1.3763,1.3763,1.3763,1.3468,1.3495,1.3518,1.3551,1.357,1.3592,1.3618,1.3631,1.366,1.3694,1.3696,1.3734,1.3757,1.3798,1.3813,1.3843,1.3832,1.3844,1.3847,1.385,1.3853,1.3768,1.3848,1.3848,1.3848,1.3848,1.3848,0,1.3542,1.3557,1.3587,1.3621,1.3647,1.364,1.3666,1.3688,1.3721,1.3744,1.3771,1.3811,1.3844,1.386,1.3892,1.3913,1.391,1.3921,1.3919,1.3922,1.3861,1.385,1.3922,1.3922,1.3922,1.3922,1.3922,1.3922,1.3583,1.3627,1.3634,1.3688,1.3702,1.374,1.3756,1.3776,1.3794,1.384,1.3867,1.3878,1.3898,1.3932,1.3961,1.3965,1.3977,1.3989,1.3991,1.3934,1.3926,1.3919,1.3908,1.3992,1.3992,1.4049,1.405,1.405]}]]